Regional Weather Roundup
Issued by NWS Lake Charles, LA

Home | Current Version | Previous Version | Text Only | Print | Product List | Glossary On
Versions: 1 2 3 4 5 6 7 8 9 10 11 12 13 14 15 16 17 18 19 20 21 22 23 24 25 26 27 28 29 30 31 32 33 34 35 36 37 38 39 40 41 42 43 44 45 46 47 48 49 50
000
ASUS44 KLCH 211410
RWRLCH
RWRLCH
REGIONAL WEATHER ROUNDUP
NATIONAL WEATHER SERVICE LAKE CHARLES LA
900 AM CDT THU AUG 21 2014

Note: "fair" indicates few or no clouds below 12,000 feet with no
significant weather and/or obstructions to visibility.


ACROSS SOUTHEAST TEXAS

CITY           SKY/WX    TMP DP  RH WIND       PRES   REMARKS
BEAUMONT       MOSUNNY   87  79  76 S12       30.09R HX 101
BEAUMONT CITY    N/A     84  79  84 S7        30.10R
ORANGE         MOSUNNY   86  79  80 S8        30.11S
JASPER         MOSUNNY   77  74  93 CALM      30.13R
$$

ACROSS CENTRAL LOUISIANA

CITY           SKY/WX    TMP DP  RH WIND       PRES   REMARKS
LEESVILLE      MOSUNNY   81  77  88 S3        30.11S
FULLERTON        N/A     83  77  82 CALM      30.10R
ALEXANDRIA INT PTSUNNY   81  76  84 SE7       30.10S
ESLER FIELD    PTSUNNY   82  75  79 SE3       30.13R
DERIDDER         N/A     83  77  83 CALM      30.13S HAZE
OAKDALE        CLOUDY    80  77  92 CALM      30.12S
OPELOUSAS        N/A    N/A N/A N/A CALM      30.12S
$$

ACROSS SOUTHWEST AND SOUTH CENTRAL LOUISIANA

CITY           SKY/WX    TMP DP  RH WIND       PRES   REMARKS
SULPHUR        MOSUNNY   87  81  82 SE7       30.11S HX 103
LAKE CHARLES   MOSUNNY   86  79  79 S5        30.10
CHENNAULT INT  MOSUNNY   84  79  84 CALM      30.11S
CAMERON PHI    MOSUNNY   86  79  79 SW10      30.10F
DEQUINCY         N/A     82  78  88 CALM      30.11R
JENNINGS         N/A     83  79  88 SE5       30.11S
LAFAYETTE      PTSUNNY   82  78  88 CALM      30.13R
NEW IBERIA     MOSUNNY   85  78  80 S5        30.13R
ABBEVILLE        N/A     84  79  84 S5        30.12S
PATTERSON      SUNNY    N/A N/A N/A MISG        N/A
SALT POINT       N/A     90  79  70 VRB3      30.12R HX 106
$$

SELECTED SITES ACROSS THE REGION

CITY           SKY/WX    TMP DP  RH WIND       PRES   REMARKS
HOUSTON BUSH   PTSUNNY   84  79  85 S8        30.09R
HOUSTON HOBBY  MOSUNNY   84  78  82 S9        30.08R
GALVESTON      MOSUNNY   87  78  74 S15       30.09R HX 100
COLLEGE STAT   CLOUDY    82  78  88 S8        30.08R
CONROE         PTSUNNY   80  79  96 S7        30.10R
HUNTSVILLE     CLOUDY    82  78  88 S7        30.09S
LUFKIN         CLOUDY    80  77  90 S6        30.10S FOG
SHREVEPORT     MOSUNNY   80  76  87 SW7       30.10R
MONROE         PTSUNNY   79  75  87 S5        30.14R
NATCHEZ MS     CLOUDY    82  75  78 CALM      30.15S
BATON ROUGE    PTSUNNY   80  74  81 CALM      30.14R
N.O. INTL ARPT PTSUNNY   86  76  71 CALM      30.13S
SLIDELL        SUNNY     84  77  79 CALM      30.14R
$$

MARINE REPORTS

STATION/POSITION TIME  TEMP    WIND        PRES    VSBY  WAVE
                       AIR SEA DIR/SP/G                  HT/PER
                 (UTC) (F)     (DEG/KT/KT) (MB)    (MI)  (FT/S)
BUOY 30 S HIGH I NOT AVBL
SEA RIM ST PARK  1400   86     200/ 11/ 14 1019.4R
PORT ARTHUR      1400      87  200/  5/  9 1019.0R
SABINE PASS N    1400   87 87  200/ 10/ 14 1019.0R
TEXAS POINT      1400   86 86  190/ 12/ 15 1019.0S
CALCASIEU PASS   1400   86 86  220/ 11/ 13 1020.2S
LK CHARLES BEACH 1400   85 86              1020.2R
MARSH ISLAND     1300   88     200/  4/  8   N/A
FRESH WATER LOCK 1400   86 86  170/  7/  8 1019.7R
AMERADA PASS     1400   86 85   CALM  /  2 1020.1R
$$


USA.gov is the U.S. government's official web portal to all federal, state and local government web resources and services.